| time (UTC) | temp C | wind direction | speed KPH | gust KPH | rain 1hr cm | rain 24hr cm | rain mn cm | humidity % | barometer mb |
| 20260508051524 | 6 | 248 | 0.0 | 4.8 | 0.00 | 0.00 | 0.00 | 92 | 1016.8 |
| 20260508050028 | 6 | 248 | 0.0 | 0.0 | 0.00 | 0.00 | 0.00 | 93 | 1016.7 |
| 20260508044518 | 6 | 248 | 0.0 | 0.0 | 0.00 | 0.00 | 0.00 | 92 | 1016.7 |
| 20260508043015 | 6 | 248 | 0.0 | 0.0 | 0.00 | 0.00 | 0.00 | 92 | 1016.5 |
| 20260508041515 | 6 | 248 | 0.0 | 3.2 | 0.00 | 0.00 | 0.00 | 93 | 1016.5 |
| 20260508040015 | 6 | 248 | 0.0 | 0.0 | 0.00 | 0.00 | 0.00 | 92 | 1016.4 |
| 20260508034522 | 6 | 248 | 0.0 | 1.6 | 0.00 | 0.00 | 0.00 | 92 | 1016.5 |
| 20260508033014 | 6 | 248 | 0.0 | 0.0 | 0.00 | 0.00 | 0.00 | 92 | 1016.4 |
| 20260508031513 | 6 | 248 | 0.0 | 0.0 | 0.00 | 0.00 | 0.00 | 92 | 1016.4 |
| 20260508030012 | 6 | 248 | 0.0 | 0.0 | 0.00 | 0.00 | 0.00 | 93 | 1016.5 |
| 20260508024515 | 6 | 248 | 0.0 | 0.0 | 0.00 | 0.00 | 0.00 | 92 | 1016.5 |
| 20260508023013 | 6 | 248 | 0.0 | 0.0 | 0.00 | 0.00 | 0.00 | 92 | 1016.5 |
| 20260508021511 | 6 | 248 | 0.0 | 0.0 | 0.00 | 0.00 | 0.00 | 92 | 1016.5 |
| 20260508020013 | 6 | 248 | 0.0 | 0.0 | 0.00 | 0.00 | 0.00 | 92 | 1016.5 |
| 20260508014509 | 6 | 248 | 0.0 | 1.6 | 0.00 | 0.03 | 0.00 | 91 | 1016.4 |
| 20260508013007 | 6 | 248 | 0.0 | 0.0 | 0.00 | 0.03 | 0.00 | 91 | 1016.4 |
| 20260508011509 | 6 | 248 | 0.0 | 1.6 | 0.00 | 0.03 | 0.00 | 91 | 1016.4 |
| 20260508010015 | 6 | 248 | 0.0 | 0.0 | 0.00 | 0.03 | 0.00 | 90 | 1016.4 |
| 20260508004502 | 6 | 248 | 0.0 | 3.2 | 0.00 | 0.03 | 0.00 | 90 | 1016.6 |
| 20260508003000 | 6 | 248 | 0.0 | 3.2 | 0.00 | 0.03 | 0.00 | 89 | 1016.6 |
| 20260508001600 | 6 | 248 | 0.0 | 0.0 | 0.00 | 0.03 | 0.00 | 89 | 1016.6 |
| 20260508000120 | 7 | 248 | 1.6 | 3.2 | 0.00 | 0.03 | 0.00 | 89 | 1016.7 |
| 20260507234556 | 7 | 248 | 1.6 | 6.4 | 0.00 | 0.03 | 0.00 | 89 | 1016.7 |
| 20260507233054 | 7 | 248 | 0.0 | 0.0 | 0.00 | 0.03 | 0.00 | 90 | 1016.8 |
| 20260507231559 | 7 | 248 | 0.0 | 1.6 | 0.00 | 0.03 | 0.00 | 89 | 1016.9 |
| 20260507230051 | 7 | 9 | 0.0 | 0.0 | 0.00 | 0.03 | 0.00 | 89 | 1016.9 |
| 20260507224552 | 7 | 9 | 0.0 | 0.0 | 0.00 | 0.03 | 0.00 | 89 | 1017.0 |
| 20260507223049 | 7 | 9 | 0.0 | 0.0 | 0.00 | 0.03 | 0.00 | 88 | 1017.0 |
| 20260507221550 | 7 | 9 | 0.0 | 0.0 | 0.00 | 0.03 | 0.00 | 88 | 1016.9 |
| 20260507220046 | 7 | 9 | 0.0 | 0.0 | 0.00 | 0.03 | 0.00 | 86 | 1016.9 |
| 20260507214547 | 7 | 9 | 0.0 | 0.0 | 0.00 | 0.05 | 0.03 | 86 | 1017.0 |
| 20260507213045 | 7 | 9 | 0.0 | 0.0 | 0.00 | 0.05 | 0.03 | 85 | 1016.9 |
| 20260507211554 | 8 | 9 | 0.0 | 0.0 | 0.00 | 0.05 | 0.03 | 83 | 1016.9 |
| 20260507210047 | 8 | 9 | 0.0 | 0.0 | 0.00 | 0.05 | 0.03 | 81 | 1016.9 |
| 20260507204543 | 8 | 9 | 0.0 | 0.0 | 0.00 | 0.05 | 0.03 | 80 | 1016.8 |
| 20260507203042 | 8 | 9 | 0.0 | 0.0 | 0.00 | 0.05 | 0.03 | 80 | 1016.8 |
| 20260507201541 | 8 | 9 | 0.0 | 0.0 | 0.00 | 0.05 | 0.03 | 81 | 1016.7 |
| 20260507200041 | 9 | 9 | 0.0 | 0.0 | 0.00 | 0.05 | 0.03 | 79 | 1016.5 |
| 20260507194540 | 9 | 9 | 0.0 | 3.2 | 0.00 | 0.05 | 0.03 | 79 | 1016.5 |
| 20260507193039 | 9 | 5 | 0.0 | 3.2 | 0.00 | 0.05 | 0.03 | 79 | 1016.4 |
| 20260507191537 | 9 | 5 | 0.0 | 3.2 | 0.00 | 0.05 | 0.03 | 80 | 1016.4 |
| 20260507190038 | 9 | 5 | 0.0 | 0.0 | 0.00 | 0.05 | 0.03 | 79 | 1016.3 |
| 20260507184535 | 10 | 5 | 0.0 | 0.0 | 0.00 | 0.05 | 0.03 | 79 | 1016.3 |
| 20260507183035 | 10 | 5 | 0.0 | 0.0 | 0.00 | 0.05 | 0.03 | 77 | 1016.2 |
| 20260507181534 | 10 | 5 | 0.0 | 0.0 | 0.00 | 0.05 | 0.03 | 76 | 1016.2 |
| 20260507180033 | 10 | 5 | 0.0 | 1.6 | 0.00 | 0.05 | 0.03 | 73 | 1016.2 |
| 20260507174545 | 10 | 5 | 0.0 | 4.8 | 0.00 | 0.08 | 0.03 | 72 | 1016.1 |
| 20260507173032 | 11 | 5 | 0.0 | 3.2 | 0.00 | 0.08 | 0.03 | 73 | 1016.0 |
| 20260507171541 | 11 | 5 | 0.0 | 0.0 | 0.00 | 0.08 | 0.03 | 72 | 1016.0 |
| 20260507170032 | 11 | 5 | 1.6 | 4.8 | 0.00 | 0.08 | 0.03 | 71 | 1016.0 |
| 20260507164530 | 11 | 17 | 0.0 | 3.2 | 0.00 | 0.08 | 0.03 | 71 | 1016.0 |
| 20260507163029 | 11 | 17 | 0.0 | 1.6 | 0.00 | 0.08 | 0.03 | 71 | 1016.0 |
| 20260507161528 | 11 | 17 | 0.0 | 0.0 | 0.00 | 0.08 | 0.03 | 73 | 1016.0 |
| 20260507160027 | 10 | 17 | 0.0 | 1.6 | 0.00 | 0.08 | 0.03 | 72 | 1016.0 |
| 20260507154524 | 10 | 17 | 0.0 | 3.2 | 0.00 | 0.08 | 0.03 | 74 | 1016.0 |
| 20260507153026 | 10 | 355 | 0.0 | 0.0 | 0.00 | 0.08 | 0.03 | 72 | 1015.9 |
| 20260507151522 | 10 | 355 | 0.0 | 0.0 | 0.00 | 0.08 | 0.03 | 76 | 1015.9 |
| 20260507150021 | 10 | 355 | 0.0 | 3.2 | 0.00 | 0.08 | 0.03 | 78 | 1015.8 |
| 20260507144621 | 10 | 355 | 0.0 | 4.8 | 0.00 | 0.08 | 0.03 | 77 | 1015.9 |
| 20260507143020 | 10 | 282 | 0.0 | 4.8 | 0.00 | 0.08 | 0.03 | 76 | 1015.9 |
| 20260507141522 | 10 | 302 | 0.0 | 1.6 | 0.00 | 0.08 | 0.03 | 79 | 1015.8 |
| 20260507140033 | 10 | 302 | 1.6 | 4.8 | 0.00 | 0.08 | 0.03 | 76 | 1015.9 |
| 20260507134618 | 10 | 303 | 0.0 | 3.2 | 0.00 | 0.10 | 0.03 | 79 | 1016.1 |
| 20260507133018 | 10 | 329 | 0.0 | 3.2 | 0.00 | 0.10 | 0.03 | 79 | 1016.2 |
| 20260507131533 | 10 | 329 | 0.0 | 3.2 | 0.00 | 0.10 | 0.03 | 78 | 1016.1 |
| 20260507130016 | 10 | 251 | 1.6 | 4.8 | 0.00 | 0.10 | 0.03 | 79 | 1016.1 |
| 20260507124520 | 10 | 13 | 1.6 | 6.4 | 0.00 | 0.13 | 0.03 | 79 | 1016.0 |
| 20260507123018 | 10 | 5 | 3.2 | 6.4 | 0.00 | 0.13 | 0.03 | 78 | 1015.9 |
| 20260507121513 | 10 | 297 | 0.0 | 4.8 | 0.00 | 0.13 | 0.03 | 77 | 1015.8 |
| 20260507120026 | 10 | 263 | 1.6 | 9.7 | 0.00 | 0.13 | 0.03 | 78 | 1015.8 |
| 20260507114511 | 10 | 267 | 0.0 | 3.2 | 0.00 | 0.18 | 0.03 | 75 | 1015.7 |
| 20260507113012 | 10 | 28 | 3.2 | 6.4 | 0.00 | 0.18 | 0.03 | 77 | 1015.7 |
| 20260507111507 | 10 | 351 | 1.6 | 8.0 | 0.00 | 0.18 | 0.03 | 78 | 1015.6 |
| 20260507110004 | 10 | 111 | 0.0 | 9.7 | 0.00 | 0.18 | 0.03 | 80 | 1015.6 |
| 20260507104505 | 9 | 19 | 1.6 | 6.4 | 0.00 | 0.18 | 0.03 | 82 | 1015.7 |
| 20260507103100 | 9 | 328 | 1.6 | 12.9 | 0.00 | 0.18 | 0.03 | 84 | 1015.7 |
| 20260507101558 | 8 | 319 | 1.6 | 6.4 | 0.00 | 0.18 | 0.03 | 85 | 1015.7 |
| 20260507100059 | 8 | 21 | 3.2 | 12.9 | 0.00 | 0.18 | 0.03 | 86 | 1015.5 |
| 20260507094604 | 8 | 9 | 1.6 | 12.9 | 0.00 | 0.20 | 0.03 | 87 | 1015.4 |
| 20260507093050 | 8 | 279 | 0.0 | 14.5 | 0.00 | 0.20 | 0.03 | 90 | 1015.3 |
| 20260507091549 | 8 | 15 | 3.2 | 12.9 | 0.00 | 0.20 | 0.03 | 90 | 1015.2 |
| 20260507090044 | 7 | 5 | 3.2 | 12.9 | 0.00 | 0.20 | 0.03 | 93 | 1015.1 |
| 20260507084553 | 7 | 5 | 1.6 | 12.9 | 0.00 | 0.25 | 0.03 | 94 | 1014.9 |
| 20260507083041 | 7 | 5 | 6.4 | 14.5 | 0.00 | 0.25 | 0.03 | 95 | 1014.8 |
| 20260507081538 | 7 | 351 | 1.6 | 9.7 | 0.00 | 0.25 | 0.03 | 96 | 1014.8 |
| 20260507080036 | 7 | 32 | 1.6 | 8.0 | 0.00 | 0.25 | 0.03 | 97 | 1014.6 |
| 20260507074534 | 6 | 350 | 3.2 | 8.0 | 0.00 | 0.28 | 0.03 | 97 | 1014.5 |
| 20260507073033 | 6 | 9 | 1.6 | 12.9 | 0.00 | 0.28 | 0.03 | 97 | 1014.4 |
| 20260507071535 | 6 | 279 | 1.6 | 8.0 | 0.00 | 0.28 | 0.03 | 97 | 1014.4 |
| 20260507070028 | 6 | 286 | 3.2 | 11.3 | 0.00 | 0.28 | 0.03 | 97 | 1014.2 |
| 20260507064526 | 6 | 9 | 0.0 | 6.4 | 0.00 | 0.30 | 0.03 | 97 | 1014.1 |
| 20260507063027 | 6 | 23 | 1.6 | 6.4 | 0.00 | 0.30 | 0.03 | 97 | 1014.0 |
| 20260507061530 | 5 | 355 | 1.6 | 4.8 | 0.00 | 0.30 | 0.03 | 97 | 1013.9 |
| 20260507060032 | 5 | 355 | 1.6 | 8.0 | 0.00 | 0.30 | 0.03 | 97 | 1013.8 |
| 20260507054533 | 5 | 329 | 0.0 | 6.4 | 0.00 | 0.33 | 0.03 | 97 | 1013.7 |
| 20260507053020 | 5 | 348 | 1.6 | 6.4 | 0.00 | 0.33 | 0.03 | 97 | 1013.5 |